1 Minute Report
Date Time Wind Direction Wind Speed Wind Gust Wind Variable Altimeter Temperature Dewpoint Relative Humidity Visibility Ceiling Precip Present Weather Density Alt Wind Chill Heat Index
18/01/23 23:43 320 07 N/A N/A 30.28 38(F), 3(C) 17(F), -8(C) 44% 10 CLR N/A N/A N/A 33 F N/A 3745
18/01/23 23:42 320 07 N/A N/A 30.28 38(F), 3(C) 17(F), -8(C) 44% 10 CLR N/A N/A N/A 33 F N/A 3744
18/01/23 23:41 320 07 N/A N/A 30.28 38(F), 3(C) 17(F), -8(C) 44% 10 CLR N/A N/A N/A 33 F N/A 3743
18/01/23 23:40 320 07 N/A N/A 30.28 38(F), 3(C) 17(F), -8(C) 44% 10 CLR N/A N/A N/A 33 F N/A 3742
18/01/23 23:39 320 08 N/A N/A 30.28 38(F), 3(C) 17(F), -8(C) 44% 10 CLR N/A N/A N/A 32 F N/A 3741
18/01/23 23:38 320 08 N/A N/A 30.28 39(F), 4(C) 17(F), -8(C) 41% 10 CLR N/A N/A N/A 33 F N/A 3740
18/01/23 23:37 320 08 N/A N/A 30.28 39(F), 4(C) 17(F), -8(C) 41% 10 CLR N/A N/A N/A 33 F N/A 3739
18/01/23 23:36 320 08 N/A N/A 30.28 39(F), 4(C) 17(F), -8(C) 41% 10 CLR N/A N/A N/A 33 F N/A 3738
18/01/23 23:35 320 08 N/A N/A 30.28 39(F), 4(C) 17(F), -8(C) 41% 10 CLR N/A N/A N/A 33 F N/A 3737
18/01/23 23:34 320 07 N/A N/A 30.28 39(F), 4(C) 17(F), -8(C) 41% 10 CLR N/A N/A N/A 34 F N/A 3736
18/01/23 23:33 320 07 N/A N/A 30.28 39(F), 4(C) 17(F), -8(C) 41% 10 CLR N/A N/A N/A 34 F N/A 3735
18/01/23 23:32 320 08 N/A N/A 30.28 39(F), 4(C) 17(F), -8(C) 41% 10 CLR N/A N/A N/A 33 F N/A 3734
18/01/23 23:31 320 08 N/A N/A 30.28 39(F), 4(C) 17(F), -8(C) 41% 10 CLR N/A N/A N/A 33 F N/A 3733
18/01/23 23:30 320 08 N/A N/A 30.28 40(F), 4(C) 17(F), -8(C) 41% 10 CLR N/A N/A N/A 35 F N/A 3732
18/01/23 23:29 320 08 N/A N/A 30.28 40(F), 4(C) 17(F), -8(C) 41% 10 CLR N/A N/A N/A 35 F N/A 3731
18/01/23 23:28 320 07 N/A N/A 30.28 40(F), 4(C) 17(F), -8(C) 41% 10 CLR N/A N/A N/A 35 F N/A 3730
18/01/23 23:27 320 07 N/A N/A 30.28 40(F), 4(C) 17(F), -8(C) 41% 10 CLR N/A N/A N/A 35 F N/A 3729
18/01/23 23:26 320 09 N/A N/A 30.28 40(F), 4(C) 17(F), -8(C) 41% 10 CLR N/A N/A N/A 34 F N/A 3728
18/01/23 23:25 320 09 N/A N/A 30.28 40(F), 4(C) 17(F), -8(C) 41% 10 CLR N/A N/A N/A 34 F N/A 3727
18/01/23 23:24 320 09 N/A N/A 30.28 40(F), 4(C) 17(F), -8(C) 41% 10 CLR N/A N/A N/A 34 F N/A 3726
18/01/23 23:23 320 09 N/A N/A 30.28 40(F), 4(C) 17(F), -8(C) 41% 10 CLR N/A N/A N/A 34 F N/A 3725
18/01/23 23:22 320 10 N/A N/A 30.28 40(F), 4(C) 17(F), -8(C) 41% 10 CLR N/A N/A N/A 34 F N/A 3724
18/01/23 23:21 320 11 N/A N/A 30.28 40(F), 4(C) 17(F), -8(C) 41% 10 CLR N/A N/A N/A 33 F N/A 3723
18/01/23 23:20 330 10 N/A N/A 30.28 41(F), 5(C) 18(F), -8(C) 38% 10 CLR N/A N/A N/A 35 F N/A 3722
18/01/23 23:19 330 09 N/A N/A 30.28 41(F), 5(C) 18(F), -8(C) 38% 10 CLR N/A N/A N/A 35 F N/A 3721
18/01/23 23:18 330 10 N/A N/A 30.28 41(F), 5(C) 18(F), -8(C) 38% 10 CLR N/A N/A N/A 35 F N/A 3720
18/01/23 23:17 330 10 N/A N/A 30.28 42(F), 6(C) 18(F), -8(C) 36% 10 CLR N/A N/A N/A 36 F N/A 3719
18/01/23 23:16 330 10 N/A N/A 30.28 42(F), 6(C) 18(F), -8(C) 36% 10 CLR N/A N/A N/A 36 F N/A 3718
18/01/23 23:15 330 10 N/A N/A 30.28 42(F), 6(C) 18(F), -8(C) 36% 10 CLR N/A N/A N/A 36 F N/A 3717
18/01/23 23:14 330 11 N/A N/A 30.28 42(F), 6(C) 18(F), -8(C) 36% 10 CLR N/A N/A N/A 36 F N/A 3716
18/01/23 23:13 320 11 N/A N/A 30.28 42(F), 6(C) 18(F), -8(C) 36% 10 CLR N/A N/A N/A 36 F N/A 3715
18/01/23 23:12 320 10 N/A N/A 30.28 42(F), 6(C) 18(F), -8(C) 36% 10 CLR N/A N/A N/A 36 F N/A 3714
18/01/23 23:11 320 10 N/A N/A 30.28 42(F), 6(C) 18(F), -8(C) 36% 10 CLR N/A N/A N/A 36 F N/A 3713
18/01/23 23:10 320 12 N/A N/A 30.27 42(F), 6(C) 18(F), -8(C) 36% 10 CLR N/A N/A N/A 35 F N/A 3712
18/01/23 23:09 320 13 N/A N/A 30.27 42(F), 6(C) 18(F), -8(C) 36% 10 CLR N/A N/A N/A 35 F N/A 3711
18/01/23 23:08 320 13 18 N/A 30.27 42(F), 6(C) 18(F), -8(C) 36% 10 CLR N/A N/A N/A 35 F N/A 3710
18/01/23 23:07 320 14 18 N/A 30.27 42(F), 6(C) 18(F), -8(C) 36% 10 CLR N/A N/A N/A 35 F N/A 3709
18/01/23 23:06 320 14 18 N/A 30.27 42(F), 6(C) 18(F), -8(C) 36% 10 CLR N/A N/A N/A 35 F N/A 3708
18/01/23 23:05 320 13 18 N/A 30.27 42(F), 6(C) 18(F), -8(C) 36% 10 CLR N/A N/A N/A 35 F N/A 3707
18/01/23 23:04 320 12 18 N/A 30.27 42(F), 6(C) 18(F), -8(C) 36% 10 CLR N/A N/A N/A 35 F N/A 3706
18/01/23 23:03 320 13 18 N/A 30.27 42(F), 6(C) 18(F), -8(C) 36% 10 CLR N/A N/A N/A 35 F N/A 3705
18/01/23 23:02 320 14 18 N/A 30.27 42(F), 6(C) 18(F), -8(C) 36% 10 CLR N/A N/A N/A 35 F N/A 3704
18/01/23 23:01 320 12 18 N/A 30.27 42(F), 6(C) 18(F), -8(C) 36% 10 CLR N/A N/A N/A 35 F N/A 3703
18/01/23 23:00 320 12 18 N/A 30.27 42(F), 6(C) 18(F), -8(C) 36% 10 CLR N/A N/A N/A 35 F N/A 3702
18/01/23 22:59 320 13 18 N/A 30.27 42(F), 6(C) 18(F), -8(C) 36% 10 CLR N/A N/A N/A 35 F N/A 3701
18/01/23 22:58 320 13 18 N/A 30.27 42(F), 6(C) 18(F), -8(C) 36% 10 CLR N/A N/A N/A 35 F N/A 3700
18/01/23 22:57 320 12 17 N/A 30.27 42(F), 6(C) 18(F), -8(C) 36% 10 CLR N/A N/A N/A 35 F N/A 3699
18/01/23 22:56 320 12 17 N/A 30.27 42(F), 6(C) 18(F), -8(C) 36% 10 CLR N/A N/A N/A 35 F N/A 3698
18/01/23 22:55 320 12 N/A N/A 30.27 42(F), 6(C) 18(F), -8(C) 36% 10 CLR N/A N/A N/A 35 F N/A 3697
18/01/23 22:54 320 13 N/A N/A 30.27 42(F), 6(C) 18(F), -8(C) 36% 10 CLR N/A N/A N/A 35 F N/A 3696
18/01/23 22:53 330 14 N/A N/A 30.27 42(F), 6(C) 18(F), -8(C) 36% 10 CLR N/A N/A N/A 35 F N/A 3695
18/01/23 22:52 330 12 N/A N/A 30.27 42(F), 6(C) 18(F), -8(C) 36% 10 CLR N/A N/A N/A 35 F N/A 3694
18/01/23 22:51 330 11 N/A N/A 30.27 42(F), 6(C) 17(F), -8(C) 36% 10 CLR N/A N/A N/A 36 F N/A 3693
18/01/23 22:50 330 12 19 N/A 30.27 43(F), 6(C) 18(F), -8(C) 36% 10 CLR N/A N/A N/A 37 F N/A 3692
18/01/23 22:49 330 12 19 N/A 30.27 43(F), 6(C) 18(F), -8(C) 36% 10 CLR N/A N/A N/A 37 F N/A 3691
18/01/23 22:48 330 13 19 N/A 30.27 43(F), 6(C) 18(F), -8(C) 36% 10 CLR N/A N/A N/A 36 F N/A 3690
18/01/23 22:47 330 15 19 N/A 30.27 44(F), 7(C) 18(F), -8(C) 33% 10 CLR N/A N/A N/A 37 F N/A 3689
18/01/23 22:46 330 15 19 N/A 30.27 44(F), 7(C) 19(F), -7(C) 36% 10 CLR N/A N/A N/A 37 F N/A 3688
18/01/23 22:45 330 15 19 N/A 30.26 45(F), 7(C) 19(F), -7(C) 36% 10 CLR N/A N/A N/A 38 F N/A 3687
18/01/23 22:44 330 15 19 N/A 30.26 45(F), 7(C) 19(F), -7(C) 36% 10 CLR N/A N/A N/A 38 F N/A 3686
18/01/23 22:43 330 15 19 N/A 30.27 45(F), 7(C) 19(F), -7(C) 36% 10 CLR N/A N/A N/A 38 F N/A 3685
18/01/23 22:42 330 15 19 N/A 30.26 45(F), 7(C) 19(F), -7(C) 36% 10 CLR N/A N/A N/A 38 F N/A 3684
18/01/23 22:41 340 15 19 N/A 30.26 45(F), 7(C) 19(F), -7(C) 36% 10 CLR N/A N/A N/A 38 F N/A 3683
18/01/23 22:40 330 14 18 N/A 30.26 45(F), 7(C) 19(F), -7(C) 36% 10 CLR N/A N/A N/A 39 F N/A 3682
18/01/23 22:39 330 13 N/A N/A 30.26 45(F), 7(C) 19(F), -7(C) 36% 10 CLR N/A N/A N/A 39 F N/A 3681
18/01/23 22:38 330 15 N/A N/A 30.26 45(F), 7(C) 19(F), -7(C) 36% 10 CLR N/A N/A N/A 38 F N/A 3680
18/01/23 22:37 330 15 N/A N/A 30.26 45(F), 7(C) 19(F), -7(C) 36% 10 CLR N/A N/A N/A 38 F N/A 3679
18/01/23 22:36 340 14 N/A N/A 30.26 45(F), 7(C) 19(F), -7(C) 36% 10 CLR N/A N/A N/A 39 F N/A 3678
18/01/23 22:35 340 14 N/A N/A 30.26 45(F), 7(C) 19(F), -7(C) 36% 10 CLR N/A N/A N/A 39 F N/A 3677
18/01/23 22:34 340 15 N/A N/A 30.26 45(F), 7(C) 19(F), -7(C) 36% 10 CLR N/A N/A N/A 38 F N/A 3676
18/01/23 22:33 330 15 N/A N/A 30.26 45(F), 7(C) 19(F), -7(C) 36% 10 CLR N/A N/A N/A 38 F N/A 3675
18/01/23 22:32 330 15 N/A N/A 30.26 45(F), 7(C) 19(F), -7(C) 36% 10 CLR N/A N/A N/A 38 F N/A 3674
18/01/23 22:31 330 14 N/A N/A 30.26 45(F), 7(C) 19(F), -7(C) 36% 10 CLR N/A N/A N/A 39 F N/A 3673
18/01/23 22:30 330 14 N/A N/A 30.26 45(F), 7(C) 19(F), -7(C) 36% 10 CLR N/A N/A N/A 39 F N/A 3672
18/01/23 22:29 330 15 N/A N/A 30.26 45(F), 7(C) 19(F), -7(C) 36% 10 CLR N/A N/A N/A 38 F N/A 3671
18/01/23 22:28 320 15 N/A N/A 30.26 45(F), 7(C) 19(F), -7(C) 36% 10 CLR N/A N/A N/A 38 F N/A 3670
18/01/23 22:27 320 14 N/A N/A 30.26 45(F), 7(C) 19(F), -7(C) 36% 10 CLR N/A N/A N/A 39 F N/A 3669
18/01/23 22:26 330 14 N/A N/A 30.26 45(F), 7(C) 19(F), -7(C) 36% 10 CLR N/A N/A N/A 39 F N/A 3668
18/01/23 22:25 330 15 N/A N/A 30.26 45(F), 7(C) 19(F), -7(C) 36% 10 CLR N/A N/A N/A 38 F N/A 3667
18/01/23 22:24 340 15 19 N/A 30.26 45(F), 7(C) 19(F), -7(C) 36% 10 CLR N/A N/A N/A 38 F N/A 3666
18/01/23 22:23 340 14 19 N/A 30.26 45(F), 7(C) 19(F), -7(C) 36% 10 CLR N/A N/A N/A 39 F N/A 3665
18/01/23 22:22 340 13 19 N/A 30.26 45(F), 7(C) 18(F), -8(C) 33% 10 CLR N/A N/A N/A 39 F N/A 3664
18/01/23 22:21 330 13 19 N/A 30.26 45(F), 7(C) 18(F), -8(C) 33% 10 CLR N/A N/A N/A 39 F N/A 3663
18/01/23 22:20 330 13 20 N/A 30.26 45(F), 7(C) 18(F), -8(C) 33% 10 CLR N/A N/A N/A 39 F N/A 3662
18/01/23 22:19 330 14 20 N/A 30.26 45(F), 7(C) 18(F), -8(C) 33% 10 CLR N/A N/A N/A 39 F N/A 3661
18/01/23 22:18 330 15 20 N/A 30.26 45(F), 7(C) 18(F), -8(C) 33% 10 CLR N/A N/A N/A 38 F N/A 3660
18/01/23 22:17 330 15 20 N/A 30.26 45(F), 7(C) 18(F), -8(C) 33% 10 CLR N/A N/A N/A 38 F N/A 3659
18/01/23 22:16 330 16 20 N/A 30.25 45(F), 7(C) 18(F), -8(C) 33% 10 CLR N/A N/A N/A 38 F N/A 3658
18/01/23 22:15 330 14 20 N/A 30.25 45(F), 7(C) 18(F), -8(C) 33% 10 CLR N/A N/A N/A 39 F N/A 3657
18/01/23 22:14 330 14 20 N/A 30.25 45(F), 7(C) 18(F), -8(C) 33% 10 CLR N/A N/A N/A 39 F N/A 3656
18/01/23 22:13 340 14 20 N/A 30.25 45(F), 7(C) 18(F), -8(C) 33% 10 CLR N/A N/A N/A 39 F N/A 3655
18/01/23 22:12 330 15 20 N/A 30.25 45(F), 7(C) 18(F), -8(C) 33% 10 CLR N/A N/A N/A 38 F N/A 3654
18/01/23 22:11 330 16 20 N/A 30.25 45(F), 7(C) 18(F), -8(C) 33% 10 CLR N/A N/A N/A 38 F N/A 3653
18/01/23 22:10 330 14 21 N/A 30.25 45(F), 7(C) 18(F), -8(C) 33% 10 CLR N/A N/A N/A 39 F N/A 3652
18/01/23 22:09 330 14 21 N/A 30.25 45(F), 7(C) 18(F), -8(C) 33% 10 CLR N/A N/A N/A 39 F N/A 3651
18/01/23 22:08 330 15 21 N/A 30.25 45(F), 7(C) 18(F), -8(C) 33% 10 CLR N/A N/A N/A 38 F N/A 3650
18/01/23 22:07 330 13 21 N/A 30.25 45(F), 7(C) 18(F), -8(C) 33% 10 CLR N/A N/A N/A 39 F N/A 3649
18/01/23 22:06 320 13 21 N/A 30.25 45(F), 7(C) 18(F), -8(C) 33% 10 CLR N/A N/A N/A 39 F N/A 3648
18/01/23 22:05 320 15 21 N/A 30.25 45(F), 7(C) 18(F), -8(C) 33% 10 CLR N/A N/A N/A 38 F N/A 3647
18/01/23 22:04 310 16 21 N/A 30.25 45(F), 7(C) 18(F), -8(C) 33% 10 CLR N/A N/A N/A 38 F N/A 3646
18/01/23 22:03 310 16 21 N/A 30.25 45(F), 7(C) 18(F), -8(C) 33% 10 CLR N/A N/A N/A 38 F N/A 3645
18/01/23 22:02 320 17 21 N/A 30.25 45(F), 7(C) 18(F), -8(C) 33% 10 CLR N/A N/A N/A 38 F N/A 3644
18/01/23 22:01 320 17 21 N/A 30.25 45(F), 7(C) 18(F), -8(C) 33% 10 CLR N/A N/A N/A 38 F N/A 3643
18/01/23 22:00 320 16 N/A N/A 30.25 45(F), 7(C) 18(F), -8(C) 33% 10 CLR N/A N/A N/A 38 F N/A 3642
18/01/23 21:59 330 16 N/A N/A 30.25 45(F), 7(C) 18(F), -8(C) 33% 10 CLR N/A N/A N/A 38 F N/A 3641
18/01/23 21:58 330 15 N/A N/A 30.25 45(F), 7(C) 18(F), -8(C) 33% 10 CLR N/A N/A N/A 38 F N/A 3640
18/01/23 21:57 320 15 N/A N/A 30.25 45(F), 7(C) 18(F), -8(C) 33% 10 CLR N/A N/A N/A 38 F N/A 3639
18/01/23 21:56 320 16 N/A N/A 30.25 45(F), 7(C) 18(F), -8(C) 33% 10 CLR N/A N/A N/A 38 F N/A 3638
18/01/23 21:55 320 17 N/A N/A 30.25 45(F), 7(C) 18(F), -8(C) 33% 10 CLR N/A N/A N/A 38 F N/A 3637
18/01/23 21:54 320 17 22 N/A 30.25 45(F), 7(C) 18(F), -8(C) 33% 10 CLR N/A N/A N/A 38 F N/A 3636
18/01/23 21:53 330 17 23 N/A 30.25 45(F), 7(C) 18(F), -8(C) 33% 10 CLR N/A N/A N/A 38 F N/A 3635
18/01/23 21:52 340 18 23 N/A 30.25 45(F), 7(C) 18(F), -8(C) 33% 10 CLR N/A N/A N/A 37 F N/A 3634
18/01/23 21:51 330 17 23 N/A 30.25 45(F), 7(C) 18(F), -8(C) 33% 10 CLR N/A N/A N/A 38 F N/A 3633
18/01/23 21:50 330 17 23 N/A 30.25 45(F), 7(C) 18(F), -8(C) 33% 10 CLR N/A N/A N/A 38 F N/A 3632
18/01/23 21:49 330 17 23 N/A 30.25 45(F), 7(C) 18(F), -8(C) 33% 10 CLR N/A N/A N/A 38 F N/A 3631
18/01/23 21:48 330 16 23 N/A 30.24 45(F), 7(C) 18(F), -8(C) 33% 10 CLR N/A N/A N/A 38 F N/A 3630
18/01/23 21:47 330 16 23 N/A 30.25 45(F), 7(C) 18(F), -8(C) 33% 10 CLR N/A N/A N/A 38 F N/A 3629
18/01/23 21:46 320 17 23 N/A 30.24 45(F), 7(C) 18(F), -8(C) 33% 10 CLR N/A N/A N/A 38 F N/A 3628
18/01/23 21:45 330 19 23 N/A 30.24 45(F), 7(C) 18(F), -8(C) 33% 10 CLR N/A N/A N/A 37 F N/A 3627
18/01/23 21:44 330 17 23 N/A 30.24 45(F), 7(C) 18(F), -8(C) 33% 10 CLR N/A N/A N/A 38 F N/A 3626
18/01/23 21:43 330 14 23 N/A 30.25 45(F), 7(C) 18(F), -8(C) 33% 10 CLR N/A N/A N/A 39 F N/A 3625